FW7253 Weather Reports


Display with metric or nautical units.
time (UTC)temp
F
wind
direction
speed
MPH
gust
MPH
rain 1hr
in
rain 24hr
in
rain mn
in
humidity
%
barometer
mb
20260505190040 46 209 1.0 3.0 0.00 0.00 0.00 62 1011.7
20260505185532 46 148 1.0 3.0 0.00 0.00 0.00 61 1011.6
20260505185035 46 137 0.0 3.0 0.00 0.00 0.00 60 1011.7
20260505184537 46 0 1.0 3.0 0.00 0.00 0.00 60 1011.7
20260505184032 46 168 1.0 4.0 0.00 0.00 0.00 60 1011.5
20260505183532 46 145 1.0 4.0 0.00 0.00 0.00 59 1011.5
20260505183044 47 0 1.0 6.0 0.00 0.00 0.00 59 1011.6
20260505182534 47 155 3.0 6.0 0.00 0.00 0.00 59 1011.5
20260505182037 47 195 2.0 6.0 0.00 0.00 0.00 58 1011.5
20260505181545 47 174 2.0 7.0 0.00 0.00 0.00 58 1011.5
20260505181035 47 155 4.0 7.0 0.00 0.00 0.00 57 1011.4
20260505180538 47 175 4.0 8.0 0.00 0.00 0.00 56 1011.4
20260505180051 48 221 2.0 8.0 0.00 0.00 0.00 55 1011.4
20260505175534 48 205 4.0 11.0 0.00 0.00 0.00 55 1011.2
20260505175035 48 237 5.0 11.0 0.00 0.00 0.00 54 1011.4
20260505174553 48 233 6.0 11.0 0.00 0.00 0.00 54 1011.4
20260505174035 48 205 4.0 8.0 0.00 0.00 0.00 52 1011.4
20260505173535 47 269 3.0 8.0 0.00 0.00 0.00 53 1011.3
20260505173046 47 215 5.0 10.0 0.00 0.00 0.00 52 1011.3
20260505172535 47 202 6.0 13.0 0.00 0.00 0.00 50 1011.3
20260505172035 47 204 6.0 13.0 0.00 0.00 0.00 50 1011.4
20260505171545 48 229 9.0 14.0 0.00 0.00 0.00 50 1011.3
20260505171036 48 223 9.0 14.0 0.00 0.00 0.00 49 1011.1
20260505170535 48 219 9.0 14.0 0.00 0.00 0.00 47 1011.0
20260505170043 48 221 9.0 14.0 0.00 0.00 0.00 48 1011.1
20260505165534 48 166 9.0 14.0 0.00 0.00 0.00 47 1011.0
20260505165035 48 227 7.0 12.0 0.00 0.00 0.00 47 1011.0
20260505164542 49 262 8.0 15.0 0.00 0.00 0.00 46 1011.0
20260505164034 49 222 10.0 15.0 0.00 0.00 0.00 46 1011.0
20260505163535 48 217 9.0 15.0 0.00 0.00 0.00 45 1011.1
20260505163050 49 245 10.0 15.0 0.00 0.00 0.00 45 1010.9
20260505162535 49 220 10.0 15.0 0.00 0.00 0.00 44 1010.9
20260505162035 49 210 10.0 14.0 0.00 0.00 0.00 42 1010.9
20260505161546 49 231 9.0 15.0 0.00 0.00 0.00 44 1010.9
20260505161035 50 218 8.0 15.0 0.00 0.00 0.00 42 1010.8
20260505160535 51 224 10.0 15.0 0.00 0.00 0.00 42 1011.0
20260505153041 50 329 5.0 13.0 0.00 0.00 0.00 25 1010.8
20260505152533 51 347 6.0 13.0 0.00 0.00 0.00 24 1010.8
20260505152031 50 318 6.0 12.0 0.00 0.00 0.00 26 1010.9
20260505151540 50 319 7.0 12.0 0.00 0.00 0.00 25 1010.7
20260505151035 51 15 6.0 17.0 0.00 0.00 0.00 27 1010.8
20260505150533 50 273 5.0 17.0 0.00 0.00 0.00 26 1010.8
20260505140532 53 356 7.0 12.0 0.00 0.00 0.00 23 1010.9
20260505130107 51 70 3.0 15.0 0.00 0.00 0.00 24 1011.0
20260505125032 51 20 5.0 14.0 0.00 0.00 0.00 24 1011.2
20260505124551 51 244 6.0 14.0 0.00 0.00 0.00 22 1011.0
20260505124032 52 314 7.0 12.0 0.00 0.00 0.00 23 1011.1
20260505123534 52 310 6.0 19.0 0.00 0.00 0.00 25 1011.2
20260505123045 52 283 4.0 19.0 0.00 0.00 0.00 24 1011.0
20260505122532 51 243 7.0 19.0 0.00 0.00 0.00 23 1010.9
20260505122032 51 297 7.0 15.0 0.00 0.00 0.00 24 1011.0
20260505121551 51 344 8.0 13.0 0.00 0.00 0.00 22 1010.9
20260505121035 51 60 4.0 12.0 0.00 0.00 0.00 25 1010.9
20260505120535 52 243 5.0 12.0 0.00 0.00 0.00 22 1010.9
20260505120038 51 242 2.0 5.0 0.00 0.00 0.00 24 1011.0
20260505115534 51 150 1.0 14.0 0.00 0.00 0.00 25 1010.9
20260505115036 50 94 3.0 14.0 0.00 0.00 0.00 23 1010.9
20260505114547 51 340 8.0 14.0 0.00 0.00 0.00 23 1011.1
20260505114035 51 343 6.0 12.0 0.00 0.00 0.00 26 1010.9
20260505113535 51 334 4.0 11.0 0.00 0.00 0.00 23 1011.0
20260505113049 50 248 5.0 15.0 0.00 0.00 0.00 24 1011.1
20260505112538 50 253 9.0 15.0 0.00 0.00 0.00 24 1011.0
20260505112035 50 315 6.0 11.0 0.00 0.00 0.00 26 1011.2
20260505111541 51 298 5.0 11.0 0.00 0.00 0.00 26 1011.2
20260505111034 51 269 6.0 11.0 0.00 0.00 0.00 28 1011.1
20260505110535 51 283 4.0 12.0 0.00 0.00 0.00 34 1011.1
20260505102034 49 329 9.0 14.0 0.00 0.00 0.00 29 1011.4
20260505101547 49 155 5.0 12.0 0.00 0.00 0.00 30 1011.2
20260505101035 49 299 6.0 15.0 0.00 0.00 0.00 32 1011.3
20260505100535 48 332 9.0 15.0 0.00 0.00 0.00 31 1011.2
20260505100040 48 299 4.0 12.0 0.00 0.00 0.00 34 1011.2
20260505095534 47 297 6.0 13.0 0.00 0.00 0.00 31 1011.3
20260505095034 47 308 8.0 15.0 0.00 0.00 0.00 32 1011.3
20260505094540 48 334 10.0 15.0 0.00 0.00 0.00 32 1011.2
20260505094034 48 275 3.0 12.0 0.00 0.00 0.00 35 1011.2
20260505093534 47 296 6.0 10.0 0.00 0.00 0.00 33 1011.3
20260505093044 47 300 3.0 15.0 0.00 0.00 0.00 34 1011.3
20260505092534 47 30 8.0 15.0 0.00 0.00 0.00 31 1011.2
20260505092034 47 313 6.0 11.0 0.00 0.00 0.00 32 1011.3
20260505091541 47 319 6.0 13.0 0.00 0.00 0.00 38 1011.2
20260505091036 46 345 4.0 13.0 0.00 0.00 0.00 36 1011.2
20260505090534 46 21 8.0 13.0 0.00 0.00 0.00 37 1011.3
20260505090051 46 336 6.0 10.0 0.00 0.00 0.00 36 1011.1
20260505085535 47 359 4.0 9.0 0.00 0.00 0.00 39 1011.1
20260505085036 46 309 5.0 16.0 0.00 0.00 0.00 37 1011.1
20260505084548 45 354 3.0 16.0 0.00 0.00 0.00 40 1011.1
20260505084033 45 342 9.0 14.0 0.00 0.00 0.00 38 1011.2
20260505083535 44 325 7.0 14.0 0.00 0.00 0.00 38 1011.2
20260505083046 44 323 6.0 13.0 0.00 0.00 0.00 38 1011.2
20260505082535 45 20 3.0 11.0 0.00 0.00 0.00 38 1011.3
20260505082034 44 51 6.0 11.0 0.00 0.00 0.00 39 1011.2
20260505081551 44 283 4.0 15.0 0.00 0.00 0.00 39 1011.3
20260505081034 44 269 4.0 15.0 0.00 0.00 0.00 40 1011.3
20260505080538 43 326 8.0 14.0 0.00 0.00 0.00 39 1011.3
20260505080048 43 297 7.0 12.0 0.00 0.00 0.00 40 1011.2
20260505075535 43 346 6.0 12.0 0.00 0.00 0.00 39 1011.3
20260505075034 43 313 5.0 13.0 0.00 0.00 0.00 41 1011.2
20260505074541 43 295 8.0 13.0 0.00 0.00 0.00 40 1011.1
20260505074034 43 347 8.0 13.0 0.00 0.00 0.00 40 1011.2
20260505073535 43 329 7.0 13.0 0.00 0.00 0.00 41 1011.2
20260505073048 42 340 4.0 12.0 0.00 0.00 0.00 42 1011.2
20260505072534 42 295 5.0 12.0 0.00 0.00 0.00 43 1011.1
20260505072036 42 321 6.0 18.0 0.00 0.00 0.00 44 1011.0
20260505071552 42 290 7.0 19.0 0.00 0.00 0.00 44 1011.1
20260505071034 41 337 9.0 19.0 0.00 0.00 0.00 44 1011.0
20260505070536 41 349 6.0 19.0 0.00 0.00 0.00 45 1010.9
20260505070044 41 293 7.0 13.0 0.00 0.00 0.00 45 1010.9
20260505065534 40 342 9.0 13.0 0.00 0.00 0.00 45 1010.9
20260505065033 40 330 6.0 14.0 0.00 0.00 0.00 44 1010.8
20260505064542 40 323 6.0 14.0 0.00 0.00 0.00 45 1010.8
20260505064036 40 352 6.0 16.0 0.00 0.00 0.00 45 1010.9
20260505063534 40 4 7.0 16.0 0.00 0.00 0.00 45 1010.8
20260505063047 40 314 7.0 15.0 0.00 0.00 0.00 46 1011.0
20260505062534 40 339 5.0 13.0 0.00 0.00 0.00 46 1010.9
20260505062035 40 17 6.0 11.0 0.00 0.00 0.00 46 1010.8
20260505061548 40 342 6.0 13.0 0.00 0.00 0.00 47 1010.9
20260505061034 39 1 7.0 13.0 0.00 0.00 0.00 49 1010.9
20260505060536 39 312 4.0 13.0 0.00 0.00 0.00 50 1010.9
20260505060051 39 302 5.0 17.0 0.00 0.00 0.00 49 1010.8
20260505055538 39 309 8.0 17.0 0.00 0.00 0.00 48 1010.9
20260505055035 39 323 6.0 11.0 0.00 0.00 0.00 50 1010.9
20260505054555 39 328 4.0 17.0 0.00 0.00 0.00 50 1011.0
20260505054035 38 356 9.0 17.0 0.00 0.00 0.00 50 1010.9
20260505053534 38 349 6.0 16.0 0.00 0.00 0.00 50 1010.8
20260505053054 38 53 7.0 16.0 0.00 0.00 0.00 51 1010.7
20260505052534 38 1 7.0 14.0 0.00 0.00 0.00 52 1010.8
20260505052034 38 309 6.0 14.0 0.00 0.00 0.00 51 1010.7
20260505051549 38 329 2.0 8.0 0.00 0.00 0.00 53 1010.8
20260505051034 38 355 1.0 11.0 0.00 0.00 0.00 52 1010.7
20260505050536 37 356 4.0 11.0 0.00 0.00 0.00 53 1010.6
20260505041545 34 0 0.0 2.0 0.00 0.00 0.00 61 1010.5
20260505041034 33 0 0.0 2.0 0.00 0.00 0.00 62 1010.5
20260505040537 32 0 0.0 2.0 0.00 0.00 0.00 64 1010.5
20260505040044 32 0 0.0 0.0 0.00 0.00 0.00 67 1010.3
20260505035535 32 0 0.0 1.0 0.00 0.00 0.00 64 1010.4
20260505035035 32 0 0.0 1.0 0.00 0.00 0.00 63 1010.3
20260505034545 33 0 0.0 2.0 0.00 0.00 0.00 61 1010.3
20260505034034 34 0 0.0 2.0 0.00 0.00 0.00 61 1010.3
20260505033534 34 0 0.0 1.0 0.00 0.00 0.00 60 1010.2
20260505033044 33 101 0.0 5.0 0.00 0.00 0.00 60 1010.2
20260505032534 33 0 1.0 5.0 0.00 0.00 0.00 61 1010.3
20260505032033 33 355 1.0 2.0 0.00 0.00 0.00 62 1010.3
20260505031539 33 357 0.0 2.0 0.00 0.00 0.00 62 1010.3
20260505031033 33 0 0.0 2.0 0.00 0.00 0.00 63 1010.3
20260505030534 32 0 1.0 2.0 0.00 0.00 0.00 62 1010.2
20260505030047 32 0 0.0 1.0 0.00 0.00 0.00 63 1010.2
20260505025536 33 319 0.0 1.0 0.00 0.00 0.00 62 1010.3
20260505025034 33 0 0.0 1.0 0.00 0.00 0.00 62 1010.1
20260505024544 33 0 0.0 1.0 0.00 0.00 0.00 61 1010.2
20260505024034 33 330 0.0 1.0 0.00 0.00 0.00 61 1010.3
20260505023534 34 65 0.0 1.0 0.00 0.00 0.00 58 1010.2
20260505023045 34 0 0.0 0.0 0.00 0.00 0.00 57 1010.2
20260505022534 35 0 0.0 1.0 0.00 0.00 0.00 56 1010.1
20260505022036 35 0 0.0 2.0 0.00 0.00 0.00 55 1010.0
20260505021538 35 347 0.0 2.0 0.00 0.00 0.00 55 1010.2
20260505021033 35 352 0.0 2.0 0.00 0.00 0.00 55 1010.1
20260505020536 35 0 0.0 1.0 0.00 0.00 0.00 57 1010.1
20260505020045 35 0 0.0 4.0 0.00 0.00 0.00 56 1010.0
20260505015534 35 0 0.0 4.0 0.00 0.00 0.00 56 1009.9
20260505015035 35 0 1.0 4.0 0.00 0.00 0.00 56 1009.9
20260505014546 36 0 0.0 2.0 0.00 0.00 0.00 54 1009.9
20260505014034 36 0 0.0 2.0 0.00 0.00 0.00 54 1009.7
20260505013534 36 0 0.0 1.0 0.00 0.00 0.00 55 1009.7
20260505013044 36 65 0.0 3.0 0.00 0.00 0.00 54 1009.6
20260505012534 36 0 0.0 3.0 0.00 0.00 0.00 53 1009.6
20260505012036 37 90 0.0 3.0 0.00 0.00 0.00 53 1009.5
20260505011549 37 23 1.0 3.0 0.00 0.00 0.00 52 1009.4
20260505011034 37 83 0.0 3.0 0.00 0.00 0.00 52 1009.4
20260505010534 37 351 1.0 3.0 0.00 0.00 0.00 52 1009.4
20260505010042 37 86 0.0 3.0 0.00 0.00 0.00 53 1009.3
20260505005534 37 346 0.0 3.0 0.00 0.00 0.00 54 1009.4
20260505005034 37 336 0.0 5.0 0.00 0.00 0.00 53 1009.4
20260505004548 38 343 1.0 5.0 0.00 0.00 0.00 52 1009.4
20260505004035 38 89 0.0 7.0 0.00 0.00 0.00 52 1009.2
20260505003537 38 0 0.0 7.0 0.00 0.00 0.00 52 1009.3
20260505003047 38 0 1.0 7.0 0.00 0.00 0.00 51 1009.1
20260505002533 38 0 1.0 7.0 0.00 0.00 0.00 53 1009.2
20260505002033 38 101 1.0 7.0 0.00 0.00 0.00 52 1009.1
20260505001546 38 333 2.0 7.0 0.00 0.00 0.00 52 1009.1
20260505001033 38 30 1.0 4.0 0.00 0.00 0.00 53 1009.0
20260505000535 38 0 0.0 4.0 0.00 0.00 0.00 53 1009.0
20260505000047 38 0 0.0 6.0 0.00 0.00 0.00 53 1008.8
20260504235533 38 148 0.0 6.0 0.00 0.00 0.00 52 1008.8
20260504235034 38 5 1.0 5.0 0.00 0.00 0.00 52 1008.8
20260504234542 39 0 0.0 4.0 0.00 0.00 0.00 52 1008.7
20260504234036 39 136 0.0 4.0 0.00 0.00 0.00 51 1008.8
20260504233537 39 0 0.0 1.0 0.00 0.00 0.00 51 1008.7
20260504233050 39 0 0.0 4.0 0.00 0.00 0.00 51 1008.7
20260504232533 40 0 0.0 12.0 0.00 0.00 0.00 50 1008.6
20260504232033 41 0 2.0 14.0 0.00 0.00 0.00 48 1008.6
20260504231547 41 346 7.0 14.0 0.00 0.00 0.00 48 1008.4
20260504231033 41 349 6.0 13.0 0.00 0.00 0.00 49 1008.5
20260504230534 41 285 7.0 14.0 0.00 0.00 0.00 49 1008.5
20260504230047 41 342 7.0 15.0 0.00 0.00 0.00 49 1008.6
20260504225534 41 278 6.0 15.0 0.00 0.00 0.00 50 1008.6
20260504225036 41 316 8.0 13.0 0.00 0.00 0.00 50 1008.6
20260504224548 41 299 5.0 10.0 0.00 0.00 0.00 53 1008.7
20260504224036 41 308 4.0 12.0 0.00 0.00 0.00 53 1008.7
20260504223535 42 323 5.0 12.0 0.00 0.00 0.00 53 1008.6
20260504223045 42 269 4.0 12.0 0.00 0.00 0.00 53 1008.6
20260504222534 42 335 4.0 15.0 0.00 0.00 0.00 53 1008.4
20260504222033 42 347 8.0 15.0 0.00 0.00 0.00 53 1008.3
20260504221543 42 328 7.0 14.0 0.00 0.00 0.00 53 1008.2
20260504221034 43 321 7.0 15.0 0.00 0.00 0.00 53 1008.2
20260504220534 43 259 7.0 15.0 0.00 0.00 0.00 54 1008.2
20260504220051 43 207 5.0 11.0 0.00 0.00 0.00 54 1008.1
20260504215534 43 351 5.0 11.0 0.00 0.00 0.00 54 1008.1
20260504215034 43 312 5.0 11.0 0.00 0.00 0.00 54 1008.0
20260504214551 44 215 5.0 10.0 0.00 0.00 0.00 54 1008.0
20260504214033 44 355 6.0 12.0 0.00 0.00 0.00 54 1007.8
20260504213533 44 326 4.0 12.0 0.00 0.00 0.00 55 1007.8
20260504213053 44 319 7.0 12.0 0.00 0.00 0.00 55 1007.7
20260504212534 45 354 4.0 13.0 0.00 0.00 0.00 54 1007.6
20260504212033 45 340 5.0 13.0 0.00 0.00 0.00 54 1007.7
20260504211545 45 298 7.0 13.0 0.00 0.00 0.00 53 1007.5
20260504211034 45 325 6.0 11.0 0.00 0.00 0.00 55 1007.5
20260504210533 46 356 6.0 14.0 0.00 0.00 0.00 55 1007.4
20260504210044 46 351 5.0 14.0 0.00 0.00 0.00 55 1007.5
20260504205533 46 350 6.0 13.0 0.00 0.00 0.00 56 1007.3
20260504205033 47 313 3.0 9.0 0.00 0.00 0.00 60 1007.2
20260504204539 47 4 3.0 9.0 0.00 0.00 0.00 62 1007.1
20260504204034 47 314 3.0 8.0 0.00 0.00 0.00 62 1007.1
20260504203534 47 240 3.0 9.0 0.00 0.00 0.00 64 1007.0
20260504203041 47 274 2.0 9.0 0.00 0.00 0.00 64 1006.9
20260504202534 47 259 1.0 10.0 0.00 0.00 0.00 64 1006.9
20260504202035 48 220 4.0 12.0 0.00 0.00 0.00 63 1006.8
20260504201548 48 262 6.0 12.0 0.00 0.00 0.00 63 1006.7
20260504201033 48 243 7.0 11.0 0.00 0.00 0.00 62 1006.6
20260504200534 48 238 6.0 13.0 0.00 0.00 0.00 62 1006.6
20260504200043 48 229 7.0 15.0 0.00 0.00 0.00 61 1006.6
20260504195533 49 293 8.0 15.0 0.00 0.00 0.00 60 1006.5
20260504195033 49 245 8.0 16.0 0.00 0.00 0.00 60 1006.4
20260504194547 49 239 7.0 16.0 0.00 0.00 0.00 59 1006.5
20260504194034 49 243 8.0 14.0 0.00 0.00 0.00 58 1006.5
20260504193534 49 260 8.0 19.0 0.00 0.00 0.00 58 1006.5
20260504193042 50 252 10.0 19.0 0.00 0.00 0.00 57 1006.4
20260504192533 50 232 9.0 15.0 0.00 0.00 0.00 58 1006.2
20260504192033 50 224 7.0 13.0 0.00 0.00 0.00 59 1006.2
20260504191552 50 296 5.0 14.0 0.00 0.00 0.00 58 1006.2
20260504191035 50 299 7.0 18.0 0.00 0.00 0.00 58 1006.0
20260504190534 51 238 7.0 18.0 0.00 0.00 0.00 58 1005.9